Location: Constantia
(34.0183°S, 18.4411°E)
Time: 18:34:31
(UTC+00:00)

Cosmos 1190 Rocket - Pass Details

Date: 17 February 2020
Orbit: 757 x 780 km, 74.1° (Epoch: 05 April)

Event Time Altitude Azimuth Distance (km) Brightness Sun altitude
Rises 03:03:57 0° 204° (SSW) 3,244 7.3 -16.0°
Reaches altitude 10° 03:06:24 10° 210° (SSW) 2,312 6.5 -15.5°
Maximum altitude 03:11:25 48° 282° (WNW) 1,002 4.2 -14.6°
Drops below altitude 10° 03:16:23 10° 355° (N) 2,292 6.2 -13.7°
Sets 03:18:49 0° 1° (N) 3,212 7.0 -13.2°
